Location: Centerville
(32.8776°N, 96.6203°W)
Time: 04:05:38
(UTC+00:00)

Cosmos 44 - Pass Details

Date: 17 June 2021
Orbit: 572 x 790 km, 65.1° (Epoch: 29 July)

Event Time Altitude Azimuth Distance (km) Brightness Sun altitude
Exits shadow 10:34:24 - 210° (SSW) 2,390 5.5 -8.6°
Reaches altitude 10° 10:34:52 10° 210° (SSW) 2,216 5.3 -8.5°
Maximum altitude 10:39:58 82° 298° (WNW) 768 3.5 -7.6°
Drops below altitude 10° 10:45:22 10° 26° (NNE) 2,333 7.1 -6.7°
Sets 10:47:50 0° 27° (NNE) 3,277 8.0 -6.3°
